Home   Weather   Tokyo   Past weeks
Flag for Japan

Past Weather in Tokyo, Japan — Yesterday and Last 2 Weeks

Now
57 °F

Refreshingly cool.


Feels Like: 55 °F
Forecast: 61 / 47 °F
Wind: 7 mph from Northwest

Location: Tokyo

Current Time: Apr 9, 2020 at 1:10:34 am

Latest Report: Apr 9, 2020 at 12:00 am


Visibility: N/A

Pressure: 29.88 "Hg

Humidity: 59%

Dew Point: 43 °F

Location of TokyoLocation

Past Weather in Tokyo — Graph

°F

Tokyo Temperature Yesterday

Maximum temperature yesterday: 66 °F (at 3:00 pm)
Minimum temperature yesterday: 47 °F (at 4:00 am)
Average temperature yesterday: 58 °F

High & Low Weather Summary for the Past Weeks

 TemperatureHumidityPressure
High74 °F (Mar 28, 1:00 pm)100% (Apr 1, 3:00 pm)30.27 "Hg (Apr 1, 3:00 pm)
Low33 °F (Mar 29, 11:00 am)21% (Mar 25, 1:00 pm)29.29 "Hg (Apr 1, 10:00 pm)
Average53 °F66%29.98 "Hg
* Reported Mar 24 11:00 pm — Apr 8 11:00 pm, Tokyo. Weather by CustomWeather, © 2020

Note: Actual official high and low records may vary slightly from our data, if they occured in-between our weather recording intervals... More about our weather records

Tokyo Weather History for the Previous 24 Hours

Scroll right to see more
 ConditionsComfort  
Time TempWeatherWind HumidityBarometerVisibility
11:00 pm
Wed, Apr 8
59 °FRefreshingly cool.7 mph57%29.88 "HgN/A
10:00 pm60 °FRefreshingly cool.7 mph54%29.88 "HgN/A
9:00 pm61 °FClear.8 mph48%29.88 "Hg16 mi
8:00 pm60 °FRefreshingly cool.8 mph51%29.87 "HgN/A
7:00 pm60 °FRefreshingly cool.6 mph59%29.85 "HgN/A
6:00 pm62 °FPassing clouds.6 mph57%29.84 "Hg16 mi
5:00 pm65 °FMild.10 mph43%29.84 "HgN/A
4:00 pm66 °FMild.10 mph50%29.83 "HgN/A
3:00 pm66 °FPassing clouds.9 mph45%29.85 "Hg19 mi
2:00 pm65 °FMild.10 mph40%29.85 "HgN/A
1:00 pm65 °FMild.6 mph41%29.87 "HgN/A
12:00 pm64 °FPassing clouds.9 mph44%29.89 "Hg19 mi
11:00 am64 °FMild.3 mph50%29.91 "HgN/A
10:00 am60 °FRefreshingly cool.5 mph55%29.93 "HgN/A
9:00 am58 °FPartly sunny.3 mph61%29.95 "Hg19 mi
8:00 am54 °FCool.3 mph64%29.95 "HgN/A
7:00 am51 °FCool.5 mph71%29.95 "HgN/A
6:00 am48 °FSunny.6 mph80%29.94 "Hg16 mi
5:00 am47 °FCool.2 mph81%29.93 "HgN/A
4:00 am47 °FCool.2 mph83%29.93 "HgN/A
3:00 am48 °FClear.3 mph80%29.93 "Hg16 mi
2:00 am51 °FCool.5 mph76%29.92 "HgN/A
1:00 am49 °FCool.2 mph86%29.91 "HgN/A
Weather by CustomWeather, © 2020

See weather overview

Advertising